Location: Moy Burn
(57.3833°N, 4.0667°W)
Time: 11:14:11
(UTC+00:00)

Cosmos 1536 - Pass Details

Date: 08 August 2020
Orbit: 541 x 557 km, 82.5° (Epoch: 21 September)

Event Time Altitude Azimuth Distance (km) Brightness Sun altitude
Exits shadow 22:34:24 19° 125° (SE) 1,332 4.3 -13.5°
Maximum altitude 22:36:03 25° 89° (E) 1,124 4.2 -13.6°
Drops below altitude 10° 22:39:21 10° 33° (NNE) 1,824 5.9 -13.8°
Sets 22:41:46 0° 20° (NNE) 2,720 7.1 -13.9°
